Location: Lugrin
(46.4033°N, 6.6674°E)
Time: 17:23:18
(UTC+00:00)

ARIANE 5 R/B - Pass Details

Date: 18 September 2020
Orbit: 620 x 657 km, 98.2° (Epoch: 23 October)

Event Time Altitude Azimuth Distance (km) Brightness Sun altitude
Exits shadow 19:37:43 27° 51° (NE) 1,216 3.8 -20.7°
Drops below altitude 10° 19:40:47 10° 8° (N) 2,002 5.4 -21.2°
Sets 19:43:12 0° 357° (N) 2,911 6.4 -21.5°
